Regional Weather Roundup
Issued by NWS

Home | Current Version | Previous Version | Text Only | Print | Product List | Glossary Off
Versions: 1 2 3 4 5 6 7 8 9 10 11 12 13 14 15 16 17 18 19 20 21 22 23 24 25 26 27 28 29 30 31 32 33 34 35 36 37 38 39 40 41 42 43 44 45 46

000
ASUS43 KDMX 252007
RWRIA

WEATHER ROUNDUP FOR IOWA
NATIONAL WEATHER SERVICE DES MOINES IA
300 PM CDT FRI JUL 25 2014

NOTE: "FAIR" INDICATES FEW OR NO CLOUDS BELOW 12,000 FEET WITH NO
SIGNIFICANT WEATHER AND/OR OBSTRUCTIONS TO VISIBILITY.

* - THESE STATIONS ARE NOT NWS STATIONS...THUS NOT UNDER NWS
QUALITY CONTROL.  THEY ALSO DO NOT REPORT WEATHER SUCH
AS PRECIPITATION OR FOG.

IAZ001>003-012>014-020>022-031>034-043>046-252100-
   NORTHWEST IOWA

CITY           SKY/WX    TMP DP  RH WIND       PRES   REMARKS
CARROLL *      MOSUNNY   79  70  73 S12G18    29.79F HX  81
CHEROKEE *     CLOUDY    79  70  73 SW8       29.79F HX  81
DENISON *      SUNNY     82  72  69 S10       29.77S HX  87
LE MARS *      PTSUNNY   82  70  65 CALM      29.79S HX  86
ORANGE CITY *  MOSUNNY   81  68  65 SW6       29.80R HX  83
SHELDON *      CLOUDY    79  72  78 SW7       29.79S HX  82
SIOUX CITY     MOSUNNY   86  72  62 SW5       29.76F HX  92
SPENCER        CLOUDY    79  69  71 S8        29.80S HX  81
STORM LAKE *   CLOUDY    77  70  78 S7G13     29.81S
$$

IAZ055>058-069>071-079>083-090>094-252100-
   SOUTHWEST IOWA

CITY           SKY/WX    TMP DP  RH WIND       PRES   REMARKS
ATLANTIC *     PTSUNNY   84  73  70 S13       29.77S HX  91
AUDUBON *      SUNNY     84  75  74 S13       29.81S HX  92
CLARINDA *     SUNNY     88  77  70 S13       29.76F HX 100
COUNCIL BLFS * SUNNY     88  79  74 SE5G13    29.74S HX 102
CRESTON *      MOSUNNY   79  70  73 SE13G21   29.81S HX  81
HARLAN  *      CLOUDY    84  73  70 SE9       29.81S HX  91
LAMONI         MOSUNNY   74  65  73 SE17G25   29.82F
RED OAK *      MOSUNNY   88  79  74 SE10      29.74F HX 102
SHENANDOAH *   SUNNY     90  77  66 S13G18    29.73F HX 102
$$

IAZ047>049-059>061-072>074-084-252100-
   CENTRAL IOWA

CITY           SKY/WX    TMP DP  RH WIND       PRES   REMARKS
AMES           CLOUDY    77  68  73 S13       29.81S
ANKENY *       MOSUNNY   79  68  69 S16G22    29.82R HX  81
CHARITON *     PTSUNNY   75  66  73 S20       29.82F
DES MOINES     PTSUNNY   79  66  64 S18G25    29.81F HX  81
GRINNELL*      CLOUDY    75  66  73 S7        29.84R
KNOXVILLE *    MOSUNNY   77  66  69 S18       29.81R
MARSHALLTOWN   CLOUDY    78  67  68 S16G24    29.82S HX  80
PELLA *        MOSUNNY   79  68  69 S15G28    29.83S HX  81
PERRY *          N/A     79  68  69 S14       29.81S HX  81
$$

IAZ004>006-015-016-023>025-035-036-252100-
   NORTH CENTRAL IOWA

CITY           SKY/WX    TMP DP  RH WIND       PRES   REMARKS
ALGONA *       CLOUDY    77  68  73 S15       29.81S
CLARION *      CLOUDY    77  68  73 S16       29.82S
ESTHERVILLE    CLOUDY    76  68  76 S13       29.80S
FORT DODGE *   CLOUDY    75  66  73 S8        29.83R
MASON CITY     CLOUDY    80  68  66 S17       29.83S HX  83
FOREST CITY *  CLOUDY    77  66  69 S10       29.82S
IOWA FALLS *   CLOUDY    75  66  73 S13       29.84S
$$

IAZ007>011-017>019-026>030-037>042-050>054-066-252100-
   NORTHEAST IOWA

CITY           SKY/WX    TMP DP  RH WIND       PRES   REMARKS
CEDAR RAPIDS   MOSUNNY   74  65  73 S16       29.84F
CHARLES CITY * CLOUDY    79  68  69 SW12      29.84S HX  81
CLINTON *      CLOUDY    72  63  73 SE6       29.94R
DECORAH *      PTSUNNY   73  66  78 S9G15     29.86S
DUBUQUE        CLOUDY    71  64  78 S10       29.90S
MONTICELLO *   CLOUDY    75  66  73 S6G13     29.87F
OELWEIN *      PTSUNNY   73  66  78 S10       29.86F
WATERLOO       SUNNY     78  66  66 S9        29.83F HX  80
$$

IAZ064-065-067-068-078-252100-
   EAST CENTRAL IOWA

CITY           SKY/WX    TMP DP  RH WIND       PRES   REMARKS
DAVENPORT      MOSUNNY   73  63  70 SW12G20   29.90R
IOWA CITY      MOSUNNY   76  67  73 S9        29.86F
MT. PLEASANT * SUNNY     75  63  64 S22G29    29.85S
MUSCATINE *    MOSUNNY   75  64  69 S17G24    29.87R
QUAD CITIES    PTSUNNY   74  64  71 VRB5      29.88R
$$

IAZ062-063-075>077-085>089-095>099-252100-
   SOUTHEAST IOWA

CITY           SKY/WX    TMP DP  RH WIND       PRES   REMARKS
BURLINGTON     MOSUNNY   73  62  68 S17G35    29.84F
FAIRFIELD *    MOSUNNY   77  66  69 S18G25    29.83S
FORT MADISON * SUNNY     75  66  73 S20G28    29.85F
KEOKUK *       SUNNY     73  64  73 S21G37    29.84F
OSKALOOSA *      N/A     77  70  78 S23       29.82F
CENTERVILLE *  SUNNY     75  68  78 SE16      29.86F
OTTUMWA        SUNNY     77  68  73 S15G26    29.82F
WASHINGTON *   SUNNY     77  68  73 S21       29.84R
$$

ABBREVIATIONS USED IN REMARKS
   TC - TEMPERATURES IN CELSIUS
  WCI - WIND CHILL INDEX
   HX - HEAT INDEX
  VSB - VISIBILITY
$$



USA.gov is the U.S. government's official web portal to all federal, state and local government web resources and services.